Location: Newark
(34.6283°N, 36.0776°E)
Time: 07:18:53
(UTC+00:00)

A-11 Canister half - Pass Details

Date: 18 September 2019
Orbit: 1527 x 1682 km, 47.3° (Epoch: 18 October)

Event Time Altitude Azimuth Distance (km) Brightness Sun altitude
Rises 09:20:55 0° 303° (WNW) 4,844 11.4 57.2°
Reaches altitude 10° 09:24:05 10° 299° (WNW) 3,875 11.1 57.3°
Maximum altitude 09:33:41 56° 225° (SW) 1,922 11.1 57.3°
Drops below altitude 10° 09:43:28 10° 150° (SSE) 3,933 11.7 57.1°
Sets 09:46:43 0° 146° (SSE) 4,920 12.0 57.0°
